Time,TemperatureF,DewpointF,PressureIn,WindDirection,WindDirectionDegrees,WindSpeedMPH,WindSpeedGustMPH,Humidity,HourlyPrecipIn,Conditions,Clouds,dailyrainin,SoftwareType,DateUTC
2013-04-10 00:02:00,47.0,35.0,-100.00,North,360,3.0,6.0,62,-99.99,,,-99.99,,2013-04-10 07:02:00,
2013-04-10 00:10:00,46.0,36.0,-100.00,NW,325,5.0,12.0,67,-99.99,,,-99.99,,2013-04-10 07:10:00,
2013-04-10 01:02:00,46.0,36.0,-100.00,NW,325,5.0,12.0,67,-99.99,,,-99.99,,2013-04-10 08:02:00,
2013-04-10 02:02:00,44.0,35.0,-100.00,North,350,3.0,12.0,70,-99.99,,,-99.99,,2013-04-10 09:02:00,
2013-04-10 02:10:00,43.0,36.0,-100.00,NNW,345,3.0,12.0,76,-99.99,,,-99.99,,2013-04-10 09:10:00,
2013-04-10 02:12:00,44.0,35.0,-100.00,North,350,3.0,12.0,70,-99.99,,,-99.99,,2013-04-10 09:12:00,
2013-04-10 03:03:00,43.0,36.0,-100.00,NNW,345,3.0,12.0,76,-99.99,,,-99.99,,2013-04-10 10:03:00,
2013-04-10 04:02:00,43.0,36.0,-100.00,WNW,295,3.0,6.0,76,-99.99,,,-99.99,,2013-04-10 11:02:00,
2013-04-10 04:12:00,43.0,36.0,-100.00,WNW,295,3.0,6.0,76,-99.99,,,-99.99,,2013-04-10 11:12:00,
2013-04-10 05:02:00,43.0,37.0,-100.00,North,350,3.0,6.0,79,-99.99,,,-99.99,,2013-04-10 12:02:00,
2013-04-10 05:10:00,45.0,37.0,-100.00,North,355,3.0,10.0,73,-99.99,,,-99.99,,2013-04-10 12:10:00,
2013-04-10 06:02:00,45.0,37.0,-100.00,North,355,3.0,10.0,73,-99.99,,,-99.99,,2013-04-10 13:02:00,
2013-04-10 07:02:00,44.0,38.0,-100.00,NW,305,2.0,5.0,79,-99.99,,,-99.99,,2013-04-10 14:02:00,
2013-04-10 07:10:00,44.0,38.0,-100.00,SW,220,1.0,3.0,79,-99.99,,,-99.99,,2013-04-10 14:10:00,
2013-04-10 07:12:00,44.0,38.0,-100.00,NW,305,2.0,5.0,79,-99.99,,,-99.99,,2013-04-10 14:12:00,
2013-04-10 08:02:00,44.0,38.0,-100.00,SW,220,1.0,3.0,79,-99.99,,,-99.99,,2013-04-10 15:02:00,
2013-04-10 09:03:00,47.0,39.0,-100.00,SE,130,2.0,3.0,73,-99.99,,,-99.99,,2013-04-10 16:03:00,
2013-04-10 09:12:00,47.0,39.0,-100.00,SE,130,2.0,3.0,73,-99.99,,,-99.99,,2013-04-10 16:12:00,
2013-04-10 09:20:00,49.0,40.0,-100.00,ESE,105,1.0,1.0,70,-99.99,,,-99.99,,2013-04-10 16:20:00,
2013-04-10 10:02:00,49.0,40.0,-100.00,ESE,105,1.0,1.0,70,-99.99,,,-99.99,,2013-04-10 17:02:00,
2013-04-10 10:10:00,50.0,42.0,-100.00,North,360,1.0,2.0,73,-99.99,,,-99.99,,2013-04-10 17:10:00,
2013-04-10 10:12:00,49.0,40.0,-100.00,ESE,105,1.0,1.0,70,-99.99,,,-99.99,,2013-04-10 17:12:00,
2013-04-10 11:02:00,50.0,42.0,-100.00,North,360,1.0,2.0,73,-99.99,,,-99.99,,2013-04-10 18:02:00,
2013-04-10 12:03:00,50.0,45.0,-100.00,North,360,2.0,5.0,82,-99.99,,,-99.99,,2013-04-10 19:03:00,
2013-04-10 12:12:00,50.0,45.0,-100.00,North,360,2.0,5.0,82,-99.99,,,-99.99,,2013-04-10 19:12:00,
2013-04-10 13:02:00,54.0,49.0,-100.00,NNE,15,2.0,5.0,83,-99.99,,,-99.99,,2013-04-10 20:02:00,
2013-04-10 13:10:00,57.0,48.0,-100.00,North,355,5.0,9.0,71,-99.99,,,-99.99,,2013-04-10 20:10:00,
2013-04-10 14:02:00,57.0,48.0,-100.00,North,355,5.0,9.0,71,-99.99,,,-99.99,,2013-04-10 21:02:00,
2013-04-10 15:03:00,57.0,42.0,-100.00,North,355,5.0,24.0,57,-99.99,,,-99.99,,2013-04-10 22:03:00,
2013-04-10 15:10:00,57.0,35.0,-100.00,NW,305,12.0,27.0,43,-99.99,,,-99.99,,2013-04-10 22:10:00,
2013-04-10 15:12:00,57.0,42.0,-100.00,North,355,5.0,24.0,57,-99.99,,,-99.99,,2013-04-10 22:12:00,
2013-04-10 16:02:00,57.0,35.0,-100.00,NW,305,12.0,27.0,43,-99.99,,,-99.99,,2013-04-10 23:02:00,
2013-04-10 17:02:00,57.0,31.0,-100.00,WNW,295,17.0,30.0,37,-99.99,,,-99.99,,2013-04-11 00:02:00,
2013-04-10 17:12:00,57.0,31.0,-100.00,WNW,295,17.0,30.0,37,-99.99,,,-99.99,,2013-04-11 00:12:00,
2013-04-10 18:02:00,57.0,30.0,-100.00,WNW,290,17.0,32.0,35,-99.99,,,-99.99,,2013-04-11 01:02:00,
2013-04-10 18:10:00,56.0,30.0,-100.00,North,350,14.0,24.0,36,-99.99,,,-99.99,,2013-04-11 01:10:00,
2013-04-10 19:02:00,56.0,30.0,-100.00,North,350,14.0,24.0,36,-99.99,,,-99.99,,2013-04-11 02:02:00,
2013-04-10 20:02:00,51.0,30.0,-100.00,North,350,5.0,9.0,44,-99.99,,,-99.99,,2013-04-11 03:02:00,
2013-04-10 20:10:00,50.0,31.0,-100.00,WNW,290,3.0,6.0,47,-99.99,,,-99.99,,2013-04-11 03:10:00,
2013-04-10 20:12:00,51.0,30.0,-100.00,North,350,5.0,9.0,44,-99.99,,,-99.99,,2013-04-11 03:12:00,
2013-04-10 21:03:00,50.0,31.0,-100.00,WNW,290,3.0,6.0,47,-99.99,,,-99.99,,2013-04-11 04:03:00,
2013-04-10 22:02:00,48.0,32.0,-100.00,WNW,300,6.0,7.0,53,-99.99,,,-99.99,,2013-04-11 05:02:00,
2013-04-10 22:12:00,48.0,32.0,-100.00,WNW,300,6.0,7.0,53,-99.99,,,-99.99,,2013-04-11 05:12:00,
2013-04-10 22:20:00,47.0,33.0,-100.00,West,280,5.0,10.0,58,-99.99,,,-99.99,,2013-04-11 05:20:00,
2013-04-10 23:02:00,47.0,33.0,-100.00,West,280,5.0,10.0,58,-99.99,,,-99.99,,2013-04-11 06:02:00,
2013-04-10 23:10:00,45.0,34.0,-100.00,WNW,295,3.0,6.0,65,-99.99,,,-99.99,,2013-04-11 06:10:00,
2013-04-10 23:12:00,47.0,33.0,-100.00,West,280,5.0,10.0,58,-99.99,,,-99.99,,2013-04-11 06:12:00,